| time (UTC) | temp F | wind direction | speed MPH | gust MPH | rain 1hr in | rain 24hr in | rain mn in | humidity % | barometer mb |
| 20260507191633 | 59 | 230 | 2.0 | 3.0 | 0.00 | 0.00 | 0.00 | 67 | 1021.2 |
| 20260507191130 | 60 | 219 | 1.0 | 2.0 | 0.00 | 0.00 | 0.00 | 68 | 1021.2 |
| 20260507190628 | 60 | 212 | 0.0 | 1.0 | 0.00 | 0.00 | 0.00 | 68 | 1021.3 |
| 20260507190127 | 60 | 223 | 1.0 | 2.0 | 0.00 | 0.00 | 0.00 | 67 | 1021.2 |
| 20260507185625 | 60 | 216 | 0.0 | 0.0 | 0.00 | 0.00 | 0.00 | 72 | 1021.3 |
| 20260507185121 | 60 | 222 | 0.0 | 1.0 | 0.00 | 0.00 | 0.00 | 69 | 1021.2 |
| 20260507184619 | 59 | 220 | 0.0 | 3.0 | 0.00 | 0.00 | 0.00 | 70 | 1021.5 |
| 20260507184117 | 59 | 222 | 1.0 | 2.0 | 0.00 | 0.00 | 0.00 | 71 | 1021.3 |
| 20260507183612 | 59 | 223 | 0.0 | 2.0 | 0.00 | 0.00 | 0.00 | 72 | 1021.6 |
| 20260507183110 | 59 | 240 | 2.0 | 2.0 | 0.00 | 0.00 | 0.00 | 70 | 1021.4 |
| 20260507182606 | 58 | 221 | 0.0 | 1.0 | 0.00 | 0.00 | 0.00 | 73 | 1021.4 |
| 20260507182102 | 58 | 229 | 1.0 | 2.0 | 0.00 | 0.00 | 0.00 | 72 | 1021.4 |
| 20260507181559 | 57 | 227 | 1.0 | 2.0 | 0.00 | 0.00 | 0.00 | 72 | 1021.5 |
| 20260507181055 | 57 | 227 | 1.0 | 1.0 | 0.00 | 0.00 | 0.00 | 72 | 1021.4 |
| 20260507180552 | 57 | 216 | 1.0 | 2.0 | 0.00 | 0.00 | 0.00 | 72 | 1021.4 |
| 20260507180049 | 57 | 221 | 0.0 | 2.0 | 0.00 | 0.00 | 0.00 | 72 | 1021.5 |
| 20260507175545 | 58 | 231 | 1.0 | 1.0 | 0.00 | 0.00 | 0.00 | 72 | 1021.5 |
| 20260507175042 | 58 | 220 | 0.0 | 1.0 | 0.00 | 0.00 | 0.00 | 71 | 1021.5 |
| 20260507174539 | 57 | 229 | 0.0 | 1.0 | 0.00 | 0.00 | 0.00 | 74 | 1021.4 |
| 20260507174037 | 57 | 217 | 1.0 | 2.0 | 0.00 | 0.00 | 0.00 | 76 | 1021.7 |
| 20260507173534 | 56 | 217 | 1.0 | 2.0 | 0.00 | 0.00 | 0.00 | 74 | 1021.8 |
| 20260507173031 | 56 | 237 | 1.0 | 3.0 | 0.00 | 0.00 | 0.00 | 75 | 1021.4 |
| 20260507172526 | 56 | 206 | 0.0 | 2.0 | 0.00 | 0.00 | 0.00 | 75 | 1021.4 |
| 20260507172024 | 56 | 234 | 1.0 | 2.0 | 0.00 | 0.00 | 0.00 | 76 | 1021.5 |
| 20260507171519 | 55 | 215 | 0.0 | 3.0 | 0.00 | 0.00 | 0.00 | 77 | 1021.6 |
| 20260507171017 | 55 | 221 | 0.0 | 1.0 | 0.00 | 0.00 | 0.00 | 79 | 1021.7 |
| 20260507170513 | 55 | 222 | 0.0 | 1.0 | 0.00 | 0.00 | 0.00 | 78 | 1021.5 |
| 20260507170010 | 55 | 221 | 1.0 | 2.0 | 0.00 | 0.00 | 0.00 | 79 | 1021.5 |
| 20260507165506 | 55 | 217 | 1.0 | 2.0 | 0.00 | 0.00 | 0.00 | 78 | 1021.7 |
| 20260507165003 | 54 | 216 | 1.0 | 5.0 | 0.00 | 0.00 | 0.00 | 80 | 1021.6 |
| 20260507164459 | 54 | 220 | 0.0 | 2.0 | 0.00 | 0.00 | 0.00 | 82 | 1021.5 |
| 20260507163956 | 53 | 218 | 0.0 | 0.0 | 0.00 | 0.00 | 0.00 | 82 | 1021.7 |
| 20260507163453 | 53 | 221 | 1.0 | 1.0 | 0.00 | 0.00 | 0.00 | 82 | 1021.8 |
| 20260507162950 | 53 | 230 | 1.0 | 2.0 | 0.00 | 0.00 | 0.00 | 82 | 1021.7 |
| 20260507162446 | 53 | 221 | 0.0 | 2.0 | 0.00 | 0.00 | 0.00 | 82 | 1021.6 |
| 20260507161943 | 53 | 228 | 2.0 | 3.0 | 0.00 | 0.00 | 0.00 | 81 | 1021.9 |
| 20260507161439 | 53 | 221 | 0.0 | 1.0 | 0.00 | 0.00 | 0.00 | 83 | 1021.7 |
| 20260507160936 | 53 | 221 | 0.0 | 2.0 | 0.00 | 0.00 | 0.00 | 81 | 1021.8 |
| 20260507160432 | 53 | 225 | 1.0 | 2.0 | 0.00 | 0.00 | 0.00 | 80 | 1021.7 |
| 20260507155927 | 53 | 215 | 0.0 | 1.0 | 0.00 | 0.00 | 0.00 | 80 | 1021.7 |
| 20260507155424 | 53 | 245 | 2.0 | 2.0 | 0.00 | 0.00 | 0.00 | 81 | 1021.8 |
| 20260507154921 | 53 | 221 | 1.0 | 3.0 | 0.00 | 0.00 | 0.00 | 82 | 1021.7 |
| 20260507154418 | 53 | 235 | 2.0 | 3.0 | 0.00 | 0.00 | 0.00 | 82 | 1021.9 |
| 20260507153915 | 53 | 220 | 2.0 | 3.0 | 0.00 | 0.00 | 0.00 | 82 | 1021.8 |
| 20260507153412 | 53 | 217 | 1.0 | 2.0 | 0.00 | 0.00 | 0.00 | 83 | 1021.9 |
| 20260507152908 | 53 | 219 | 1.0 | 2.0 | 0.00 | 0.00 | 0.00 | 82 | 1021.8 |
| 20260507152404 | 53 | 214 | 1.0 | 1.0 | 0.00 | 0.00 | 0.00 | 82 | 1021.9 |
| 20260507151900 | 53 | 212 | 2.0 | 2.0 | 0.00 | 0.00 | 0.00 | 82 | 1021.8 |
| 20260507151356 | 52 | 216 | 1.0 | 1.0 | 0.00 | 0.00 | 0.00 | 84 | 1021.8 |
| 20260507150854 | 52 | 215 | 1.0 | 5.0 | 0.00 | 0.00 | 0.00 | 84 | 1021.7 |
| 20260507150351 | 52 | 220 | 0.0 | 0.0 | 0.00 | 0.00 | 0.00 | 86 | 1021.7 |
| 20260507145847 | 51 | 215 | 0.0 | 0.0 | 0.00 | 0.00 | 0.00 | 88 | 1021.9 |
| 20260507145343 | 51 | 217 | 0.0 | 0.0 | 0.00 | 0.00 | 0.00 | 89 | 1021.8 |
| 20260507144840 | 50 | 215 | 0.0 | 0.0 | 0.00 | 0.00 | 0.00 | 90 | 1021.8 |
| 20260507144337 | 50 | 215 | 0.0 | 0.0 | 0.00 | 0.00 | 0.00 | 90 | 1021.8 |
| 20260507143834 | 50 | 215 | 0.0 | 0.0 | 0.00 | 0.00 | 0.00 | 91 | 1021.8 |
| 20260507143331 | 49 | 214 | 0.0 | 0.0 | 0.00 | 0.00 | 0.00 | 91 | 1021.8 |
| 20260507142827 | 49 | 214 | 0.0 | 0.0 | 0.00 | 0.00 | 0.00 | 91 | 1021.6 |
| 20260507142324 | 49 | 214 | 0.0 | 0.0 | 0.00 | 0.00 | 0.00 | 92 | 1021.9 |
| 20260507141821 | 49 | 215 | 0.0 | 0.0 | 0.00 | 0.00 | 0.00 | 92 | 1021.9 |
| 20260507141317 | 49 | 211 | 0.0 | 0.0 | 0.00 | 0.00 | 0.00 | 93 | 1021.7 |
| 20260507140814 | 48 | 210 | 0.0 | 0.0 | 0.00 | 0.00 | 0.00 | 93 | 1021.5 |
| 20260507140311 | 48 | 206 | 0.0 | 0.0 | 0.00 | 0.00 | 0.00 | 93 | 1021.6 |
| 20260507135809 | 48 | 206 | 0.0 | 0.0 | 0.00 | 0.00 | 0.00 | 93 | 1021.4 |
| 20260507135306 | 48 | 207 | 0.0 | 0.0 | 0.00 | 0.00 | 0.00 | 94 | 1021.4 |
| 20260507134802 | 48 | 207 | 0.0 | 0.0 | 0.00 | 0.00 | 0.00 | 94 | 1021.2 |
| 20260507134258 | 48 | 208 | 0.0 | 0.0 | 0.00 | 0.00 | 0.00 | 95 | 1021.5 |
| 20260507133754 | 48 | 208 | 0.0 | 0.0 | 0.00 | 0.00 | 0.00 | 95 | 1021.5 |
| 20260507133250 | 48 | 208 | 0.0 | 0.0 | 0.00 | 0.00 | 0.00 | 95 | 1021.5 |
| 20260507132749 | 48 | 208 | 0.0 | 0.0 | 0.00 | 0.00 | 0.00 | 95 | 1021.4 |
| 20260507132245 | 48 | 208 | 0.0 | 0.0 | 0.00 | 0.00 | 0.00 | 96 | 1021.2 |
| 20260507131742 | 48 | 208 | 0.0 | 0.0 | 0.00 | 0.00 | 0.00 | 96 | 1021.5 |
| 20260507131239 | 47 | 208 | 0.0 | 0.0 | 0.00 | 0.00 | 0.00 | 96 | 1021.5 |
| 20260507130735 | 47 | 208 | 0.0 | 0.0 | 0.00 | 0.00 | 0.00 | 95 | 1021.3 |
| 20260507130233 | 47 | 208 | 0.0 | 0.0 | 0.00 | 0.00 | 0.00 | 95 | 1021.5 |
| 20260507125732 | 47 | 208 | 0.0 | 0.0 | 0.00 | 0.00 | 0.00 | 95 | 1021.5 |
| 20260507125229 | 47 | 208 | 0.0 | 0.0 | 0.00 | 0.00 | 0.00 | 95 | 1021.4 |
| 20260507124726 | 47 | 208 | 0.0 | 0.0 | 0.00 | 0.00 | 0.00 | 95 | 1021.5 |
| 20260507124222 | 48 | 208 | 0.0 | 0.0 | 0.00 | 0.00 | 0.00 | 94 | 1021.6 |
| 20260507123721 | 48 | 208 | 0.0 | 0.0 | 0.00 | 0.00 | 0.00 | 94 | 1021.4 |
| 20260507123218 | 48 | 208 | 0.0 | 0.0 | 0.00 | 0.00 | 0.00 | 94 | 1021.8 |
| 20260507122713 | 48 | 208 | 0.0 | 0.0 | 0.00 | 0.00 | 0.00 | 94 | 1021.6 |
| 20260507122209 | 48 | 208 | 0.0 | 0.0 | 0.00 | 0.00 | 0.00 | 93 | 1021.8 |
| 20260507121705 | 48 | 209 | 0.0 | 0.0 | 0.00 | 0.00 | 0.00 | 93 | 1021.4 |
| 20260507121201 | 49 | 209 | 0.0 | 0.0 | 0.00 | 0.00 | 0.00 | 93 | 1021.6 |
| 20260507120657 | 49 | 208 | 0.0 | 0.0 | 0.00 | 0.00 | 0.00 | 93 | 1021.6 |
| 20260507120154 | 49 | 208 | 0.0 | 0.0 | 0.00 | 0.00 | 0.00 | 93 | 1021.5 |
| 20260507115650 | 49 | 208 | 0.0 | 0.0 | 0.00 | 0.00 | 0.00 | 93 | 1021.7 |
| 20260507115146 | 50 | 210 | 0.0 | 0.0 | 0.00 | 0.00 | 0.00 | 93 | 1021.8 |
| 20260507114643 | 50 | 210 | 0.0 | 0.0 | 0.00 | 0.00 | 0.00 | 93 | 1021.7 |
| 20260507114140 | 50 | 210 | 0.0 | 0.0 | 0.00 | 0.00 | 0.00 | 93 | 1021.9 |
| 20260507113637 | 50 | 212 | 0.0 | 0.0 | 0.00 | 0.00 | 0.00 | 93 | 1021.7 |
| 20260507113134 | 50 | 212 | 0.0 | 0.0 | 0.00 | 0.00 | 0.00 | 93 | 1022.2 |
| 20260507112632 | 51 | 212 | 0.0 | 0.0 | 0.00 | 0.00 | 0.00 | 92 | 1021.8 |
| 20260507112128 | 51 | 212 | 0.0 | 0.0 | 0.00 | 0.00 | 0.00 | 92 | 1022.0 |
| 20260507111626 | 51 | 212 | 0.0 | 0.0 | 0.00 | 0.00 | 0.00 | 92 | 1021.9 |
| 20260507111122 | 51 | 212 | 0.0 | 0.0 | 0.00 | 0.00 | 0.00 | 92 | 1022.1 |
| 20260507110618 | 51 | 212 | 0.0 | 0.0 | 0.00 | 0.00 | 0.00 | 92 | 1022.1 |
| 20260507110115 | 51 | 213 | 0.0 | 0.0 | 0.00 | 0.00 | 0.00 | 92 | 1022.1 |
| 20260507105612 | 51 | 216 | 0.0 | 0.0 | 0.00 | 0.00 | 0.00 | 92 | 1022.0 |
| 20260507105108 | 51 | 216 | 0.0 | 0.0 | 0.00 | 0.00 | 0.00 | 92 | 1022.0 |
| 20260507104606 | 51 | 216 | 0.0 | 0.0 | 0.00 | 0.00 | 0.00 | 92 | 1022.0 |
| 20260507104102 | 52 | 216 | 0.0 | 0.0 | 0.00 | 0.00 | 0.00 | 92 | 1022.0 |
| 20260507103558 | 52 | 216 | 0.0 | 0.0 | 0.00 | 0.00 | 0.00 | 92 | 1022.1 |
| 20260507103055 | 52 | 216 | 0.0 | 0.0 | 0.00 | 0.00 | 0.00 | 91 | 1022.1 |
| 20260507102551 | 52 | 216 | 0.0 | 0.0 | 0.00 | 0.00 | 0.00 | 91 | 1022.1 |
| 20260507102047 | 52 | 216 | 0.0 | 0.0 | 0.00 | 0.00 | 0.00 | 91 | 1022.3 |
| 20260507101543 | 52 | 216 | 0.0 | 0.0 | 0.00 | 0.00 | 0.00 | 90 | 1022.2 |
| 20260507101039 | 52 | 216 | 0.0 | 0.0 | 0.00 | 0.00 | 0.00 | 90 | 1022.1 |
| 20260507100537 | 52 | 216 | 0.0 | 0.0 | 0.00 | 0.00 | 0.00 | 90 | 1022.4 |
| 20260507100035 | 52 | 216 | 0.0 | 0.0 | 0.00 | 0.00 | 0.00 | 90 | 1022.2 |
| 20260507095533 | 52 | 216 | 0.0 | 0.0 | 0.00 | 0.00 | 0.00 | 90 | 1022.4 |
| 20260507095029 | 52 | 215 | 0.0 | 0.0 | 0.00 | 0.00 | 0.00 | 90 | 1022.5 |
| 20260507094525 | 52 | 215 | 0.0 | 1.0 | 0.00 | 0.00 | 0.00 | 89 | 1022.2 |
| 20260507094022 | 52 | 217 | 0.0 | 0.0 | 0.00 | 0.00 | 0.00 | 90 | 1022.4 |
| 20260507093520 | 52 | 215 | 0.0 | 0.0 | 0.00 | 0.00 | 0.00 | 90 | 1022.2 |
| 20260507093018 | 51 | 215 | 0.0 | 0.0 | 0.00 | 0.00 | 0.00 | 90 | 1022.2 |
| 20260507092514 | 52 | 215 | 0.0 | 1.0 | 0.00 | 0.00 | 0.00 | 90 | 1022.2 |
| 20260507092011 | 52 | 217 | 0.0 | 0.0 | 0.00 | 0.00 | 0.00 | 90 | 1022.2 |
| 20260507091508 | 51 | 215 | 0.0 | 0.0 | 0.00 | 0.00 | 0.00 | 90 | 1022.2 |
| 20260507091004 | 51 | 213 | 0.0 | 0.0 | 0.00 | 0.00 | 0.00 | 90 | 1022.2 |
| 20260507090500 | 51 | 214 | 1.0 | 1.0 | 0.00 | 0.00 | 0.00 | 91 | 1022.5 |
| 20260507085956 | 51 | 214 | 0.0 | 0.0 | 0.00 | 0.00 | 0.00 | 91 | 1022.3 |
| 20260507085454 | 51 | 213 | 0.0 | 0.0 | 0.00 | 0.00 | 0.00 | 91 | 1022.1 |
| 20260507084950 | 51 | 213 | 0.0 | 0.0 | 0.00 | 0.00 | 0.00 | 91 | 1022.1 |
| 20260507084447 | 51 | 213 | 0.0 | 0.0 | 0.00 | 0.00 | 0.00 | 91 | 1022.3 |
| 20260507083944 | 51 | 214 | 0.0 | 1.0 | 0.00 | 0.00 | 0.00 | 92 | 1022.2 |
| 20260507083441 | 52 | 213 | 0.0 | 0.0 | 0.00 | 0.00 | 0.00 | 92 | 1022.0 |
| 20260507082937 | 51 | 213 | 0.0 | 1.0 | 0.00 | 0.00 | 0.00 | 92 | 1022.1 |
| 20260507082433 | 51 | 214 | 0.0 | 2.0 | 0.00 | 0.00 | 0.00 | 93 | 1022.0 |
| 20260507081930 | 51 | 213 | 0.0 | 0.0 | 0.00 | 0.00 | 0.00 | 93 | 1022.1 |
| 20260507081426 | 51 | 213 | 0.0 | 0.0 | 0.00 | 0.00 | 0.00 | 93 | 1022.1 |
| 20260507080923 | 51 | 214 | 0.0 | 0.0 | 0.00 | 0.00 | 0.00 | 93 | 1022.1 |
| 20260507080419 | 51 | 213 | 0.0 | 1.0 | 0.00 | 0.00 | 0.00 | 93 | 1022.0 |
| 20260507075914 | 51 | 212 | 0.0 | 2.0 | 0.00 | 0.00 | 0.00 | 94 | 1022.1 |
| 20260507075411 | 51 | 214 | 0.0 | 1.0 | 0.00 | 0.00 | 0.00 | 94 | 1022.1 |
| 20260507074908 | 51 | 214 | 0.0 | 1.0 | 0.00 | 0.00 | 0.00 | 95 | 1022.2 |
| 20260507074404 | 51 | 212 | 0.0 | 2.0 | 0.00 | 0.00 | 0.00 | 95 | 1022.1 |
| 20260507073902 | 51 | 212 | 0.0 | 3.0 | 0.00 | 0.00 | 0.00 | 95 | 1022.1 |
| 20260507073358 | 51 | 212 | 0.0 | 2.0 | 0.00 | 0.00 | 0.00 | 96 | 1022.0 |
| 20260507072856 | 51 | 221 | 1.0 | 3.0 | 0.00 | 0.00 | 0.00 | 96 | 1022.2 |
| 20260507072353 | 51 | 214 | 0.0 | 1.0 | 0.00 | 0.00 | 0.00 | 96 | 1022.0 |
| 20260507071850 | 51 | 213 | 0.0 | 0.0 | 0.00 | 0.00 | 0.00 | 97 | 1021.9 |
| 20260507071348 | 51 | 212 | 0.0 | 2.0 | 0.00 | 0.00 | 0.00 | 97 | 1022.1 |
| 20260507070843 | 51 | 213 | 0.0 | 1.0 | 0.00 | 0.00 | 0.00 | 97 | 1022.0 |
| 20260507070341 | 52 | 214 | 0.0 | 3.0 | 0.00 | 0.00 | 0.00 | 97 | 1022.1 |
| 20260507065838 | 52 | 212 | 1.0 | 1.0 | 0.00 | 0.00 | 0.00 | 97 | 1022.0 |
| 20260507065334 | 52 | 213 | 0.0 | 2.0 | 0.00 | 0.00 | 0.00 | 97 | 1022.0 |
| 20260507064831 | 52 | 212 | 0.0 | 0.0 | 0.00 | 0.00 | 0.00 | 97 | 1022.0 |
| 20260507064330 | 52 | 213 | 0.0 | 2.0 | 0.00 | 0.00 | 0.00 | 97 | 1022.1 |
| 20260507063828 | 52 | 216 | 0.0 | 2.0 | 0.00 | 0.00 | 0.00 | 96 | 1022.3 |
| 20260507063324 | 52 | 211 | 0.0 | 0.0 | 0.00 | 0.00 | 0.00 | 96 | 1022.1 |
| 20260507062821 | 52 | 214 | 0.0 | 1.0 | 0.00 | 0.00 | 0.00 | 96 | 1022.2 |
| 20260507062318 | 52 | 216 | 0.0 | 1.0 | 0.00 | 0.00 | 0.00 | 95 | 1022.1 |
| 20260507061816 | 53 | 215 | 0.0 | 1.0 | 0.00 | 0.00 | 0.00 | 94 | 1022.1 |
| 20260507061314 | 53 | 213 | 1.0 | 2.0 | 0.00 | 0.00 | 0.00 | 93 | 1022.2 |
| 20260507060812 | 53 | 214 | 1.0 | 2.0 | 0.00 | 0.00 | 0.00 | 92 | 1022.2 |
| 20260507060308 | 53 | 213 | 0.0 | 1.0 | 0.00 | 0.00 | 0.00 | 91 | 1022.2 |
| 20260507055805 | 53 | 215 | 0.0 | 2.0 | 0.00 | 0.00 | 0.00 | 90 | 1022.2 |
| 20260507055300 | 54 | 213 | 1.0 | 3.0 | 0.00 | 0.00 | 0.00 | 90 | 1022.2 |
| 20260507054756 | 54 | 213 | 0.0 | 2.0 | 0.00 | 0.00 | 0.00 | 90 | 1022.1 |
| 20260507054253 | 54 | 212 | 0.0 | 2.0 | 0.00 | 0.00 | 0.00 | 90 | 1022.3 |
| 20260507053751 | 54 | 223 | 0.0 | 2.0 | 0.00 | 0.00 | 0.00 | 90 | 1022.3 |
| 20260507053248 | 54 | 218 | 2.0 | 2.0 | 0.00 | 0.00 | 0.00 | 89 | 1022.1 |
| 20260507052747 | 54 | 236 | 1.0 | 2.0 | 0.00 | 0.00 | 0.00 | 89 | 1022.0 |
| 20260507052243 | 54 | 212 | 1.0 | 3.0 | 0.00 | 0.00 | 0.00 | 88 | 1022.1 |
| 20260507051741 | 54 | 212 | 2.0 | 3.0 | 0.00 | 0.00 | 0.00 | 88 | 1022.1 |
| 20260507051237 | 54 | 215 | 0.0 | 2.0 | 0.00 | 0.00 | 0.00 | 88 | 1022.2 |
| 20260507050734 | 54 | 262 | 1.0 | 2.0 | 0.00 | 0.00 | 0.00 | 88 | 1022.0 |
| 20260507050231 | 54 | 215 | 0.0 | 1.0 | 0.00 | 0.00 | 0.00 | 88 | 1022.1 |
| 20260507045728 | 54 | 213 | 3.0 | 5.0 | 0.00 | 0.00 | 0.00 | 88 | 1022.1 |
| 20260507045224 | 54 | 214 | 3.0 | 3.0 | 0.00 | 0.00 | 0.00 | 88 | 1022.1 |
| 20260507044722 | 55 | 215 | 1.0 | 5.0 | 0.00 | 0.00 | 0.00 | 88 | 1022.0 |
| 20260507044218 | 55 | 217 | 1.0 | 5.0 | 0.00 | 0.00 | 0.00 | 88 | 1022.0 |
| 20260507043714 | 55 | 212 | 1.0 | 2.0 | 0.00 | 0.00 | 0.00 | 88 | 1022.0 |
| 20260507043211 | 54 | 217 | 0.0 | 2.0 | 0.00 | 0.00 | 0.00 | 87 | 1022.2 |
| 20260507042708 | 54 | 217 | 0.0 | 2.0 | 0.00 | 0.00 | 0.00 | 88 | 1022.1 |
| 20260507042202 | 55 | 218 | 0.0 | 0.0 | 0.00 | 0.00 | 0.00 | 87 | 1022.1 |
| 20260507041700 | 55 | 220 | 1.0 | 2.0 | 0.00 | 0.00 | 0.00 | 87 | 1022.1 |
| 20260507041156 | 55 | 218 | 1.0 | 1.0 | 0.00 | 0.00 | 0.00 | 87 | 1021.7 |
| 20260507040654 | 55 | 217 | 0.0 | 0.0 | 0.00 | 0.00 | 0.00 | 87 | 1022.0 |
| 20260507040150 | 55 | 217 | 0.0 | 1.0 | 0.00 | 0.00 | 0.00 | 87 | 1022.1 |
| 20260507035646 | 55 | 235 | 2.0 | 2.0 | 0.00 | 0.00 | 0.00 | 86 | 1021.8 |
| 20260507035142 | 55 | 214 | 0.0 | 1.0 | 0.00 | 0.00 | 0.00 | 86 | 1022.0 |
| 20260507034639 | 55 | 218 | 1.0 | 3.0 | 0.00 | 0.00 | 0.00 | 86 | 1022.0 |
| 20260507034137 | 55 | 226 | 2.0 | 3.0 | 0.00 | 0.00 | 0.00 | 85 | 1021.8 |
| 20260507033635 | 55 | 228 | 2.0 | 2.0 | 0.00 | 0.00 | 0.00 | 85 | 1021.9 |
| 20260507033132 | 55 | 218 | 1.0 | 3.0 | 0.00 | 0.00 | 0.00 | 85 | 1021.8 |
| 20260507032629 | 55 | 245 | 1.0 | 3.0 | 0.00 | 0.00 | 0.00 | 84 | 1021.7 |
| 20260507032125 | 56 | 230 | 1.0 | 6.0 | 0.00 | 0.00 | 0.00 | 84 | 1021.7 |
| 20260507031622 | 56 | 216 | 1.0 | 5.0 | 0.00 | 0.00 | 0.00 | 84 | 1021.5 |
| 20260507031118 | 56 | 208 | 2.0 | 3.0 | 0.00 | 0.00 | 0.00 | 84 | 1021.5 |
| 20260507030615 | 56 | 227 | 0.0 | 3.0 | 0.00 | 0.00 | 0.00 | 83 | 1021.5 |
| 20260507030113 | 56 | 223 | 0.0 | 3.0 | 0.00 | 0.00 | 0.00 | 83 | 1021.3 |
| 20260507025610 | 56 | 217 | 1.0 | 2.0 | 0.00 | 0.00 | 0.00 | 83 | 1021.4 |
| 20260507025107 | 56 | 214 | 0.0 | 2.0 | 0.00 | 0.00 | 0.00 | 82 | 1021.4 |
| 20260507024605 | 56 | 225 | 2.0 | 5.0 | 0.00 | 0.00 | 0.00 | 81 | 1021.3 |
| 20260507024102 | 56 | 226 | 2.0 | 5.0 | 0.00 | 0.00 | 0.00 | 82 | 1021.2 |
| 20260507023557 | 57 | 213 | 0.0 | 2.0 | 0.00 | 0.00 | 0.00 | 82 | 1021.4 |
| 20260507023055 | 56 | 227 | 1.0 | 3.0 | 0.00 | 0.00 | 0.00 | 81 | 1021.5 |
| 20260507022552 | 57 | 228 | 1.0 | 3.0 | 0.00 | 0.00 | 0.00 | 82 | 1021.5 |
| 20260507022046 | 57 | 226 | 1.0 | 2.0 | 0.00 | 0.00 | 0.00 | 81 | 1021.3 |
| 20260507021543 | 57 | 223 | 1.0 | 2.0 | 0.00 | 0.00 | 0.00 | 81 | 1021.0 |
| 20260507021040 | 57 | 217 | 0.0 | 2.0 | 0.00 | 0.00 | 0.00 | 81 | 1021.1 |
| 20260507020538 | 57 | 220 | 1.0 | 1.0 | 0.00 | 0.00 | 0.00 | 80 | 1021.1 |
| 20260507020034 | 57 | 216 | 1.0 | 3.0 | 0.00 | 0.00 | 0.00 | 81 | 1021.5 |
| 20260507015532 | 57 | 233 | 2.0 | 3.0 | 0.00 | 0.00 | 0.00 | 81 | 1021.3 |
| 20260507015029 | 57 | 220 | 1.0 | 2.0 | 0.00 | 0.00 | 0.00 | 82 | 1021.2 |
| 20260507014526 | 57 | 223 | 1.0 | 3.0 | 0.00 | 0.00 | 0.00 | 81 | 1021.6 |
| 20260507014021 | 57 | 213 | 1.0 | 2.0 | 0.00 | 0.00 | 0.00 | 81 | 1021.3 |
| 20260507013518 | 57 | 236 | 3.0 | 3.0 | 0.00 | 0.00 | 0.00 | 81 | 1021.5 |
| 20260507013016 | 57 | 215 | 2.0 | 5.0 | 0.00 | 0.00 | 0.00 | 81 | 1021.2 |
| 20260507012513 | 57 | 214 | 2.0 | 3.0 | 0.00 | 0.00 | 0.00 | 80 | 1021.3 |
| 20260507012009 | 57 | 211 | 1.0 | 2.0 | 0.00 | 0.00 | 0.00 | 80 | 1021.5 |
| 20260507011506 | 57 | 222 | 0.0 | 2.0 | 0.00 | 0.00 | 0.00 | 81 | 1021.4 |
| 20260507011002 | 57 | 230 | 1.0 | 3.0 | 0.00 | 0.00 | 0.00 | 81 | 1021.4 |
| 20260507010456 | 57 | 236 | 3.0 | 5.0 | 0.00 | 0.00 | 0.00 | 81 | 1021.5 |
| 20260507005954 | 57 | 238 | 2.0 | 5.0 | 0.00 | 0.00 | 0.00 | 81 | 1021.4 |
| 20260507005451 | 57 | 234 | 3.0 | 5.0 | 0.00 | 0.00 | 0.00 | 81 | 1021.5 |
| 20260507004947 | 57 | 209 | 1.0 | 3.0 | 0.00 | 0.00 | 0.00 | 81 | 1021.5 |
| 20260507004444 | 57 | 234 | 1.0 | 5.0 | 0.00 | 0.00 | 0.00 | 81 | 1021.6 |
| 20260507003942 | 57 | 216 | 2.0 | 3.0 | 0.00 | 0.00 | 0.00 | 80 | 1021.5 |
| 20260507003437 | 57 | 249 | 1.0 | 3.0 | 0.00 | 0.00 | 0.00 | 80 | 1021.4 |
| 20260507002932 | 57 | 220 | 3.0 | 6.0 | 0.00 | 0.00 | 0.00 | 79 | 1021.5 |
| 20260507002428 | 57 | 220 | 1.0 | 3.0 | 0.00 | 0.00 | 0.00 | 80 | 1021.4 |
| 20260507001926 | 57 | 240 | 1.0 | 5.0 | 0.00 | 0.00 | 0.00 | 80 | 1021.3 |
| 20260507001422 | 57 | 216 | 1.0 | 5.0 | 0.00 | 0.00 | 0.00 | 81 | 1021.4 |
| 20260507000920 | 57 | 220 | 1.0 | 3.0 | 0.00 | 0.00 | 0.00 | 80 | 1021.6 |
| 20260507000415 | 57 | 209 | 2.0 | 5.0 | 0.00 | 0.00 | 0.00 | 80 | 1021.6 |
| 20260506235911 | 57 | 248 | 3.0 | 7.0 | 0.00 | 0.00 | 0.00 | 80 | 1021.4 |
| 20260506235409 | 57 | 210 | 3.0 | 3.0 | 0.00 | 0.00 | 0.00 | 80 | 1021.6 |
| 20260506234904 | 57 | 215 | 3.0 | 6.0 | 0.00 | 0.00 | 0.00 | 80 | 1021.8 |
| 20260506234402 | 57 | 234 | 1.0 | 7.0 | 0.00 | 0.00 | 0.00 | 80 | 1021.5 |
| 20260506233900 | 57 | 251 | 4.0 | 6.0 | 0.00 | 0.00 | 0.00 | 79 | 1021.5 |
| 20260506233355 | 57 | 273 | 4.0 | 6.0 | 0.00 | 0.00 | 0.00 | 78 | 1021.5 |
| 20260506232852 | 58 | 216 | 2.0 | 7.0 | 0.00 | 0.00 | 0.00 | 78 | 1021.5 |
| 20260506232348 | 58 | 208 | 3.0 | 5.0 | 0.00 | 0.00 | 0.00 | 77 | 1021.5 |
| 20260506231844 | 57 | 249 | 2.0 | 3.0 | 0.00 | 0.00 | 0.00 | 78 | 1021.6 |
| 20260506231342 | 57 | 238 | 1.0 | 2.0 | 0.00 | 0.00 | 0.00 | 78 | 1021.5 |
| 20260506230840 | 57 | 217 | 2.0 | 2.0 | 0.00 | 0.00 | 0.00 | 78 | 1021.6 |
| 20260506230336 | 57 | 210 | 2.0 | 5.0 | 0.00 | 0.00 | 0.00 | 78 | 1021.6 |
| 20260506225832 | 57 | 219 | 1.0 | 5.0 | 0.00 | 0.00 | 0.00 | 77 | 1021.6 |
| 20260506225330 | 57 | 213 | 0.0 | 5.0 | 0.00 | 0.00 | 0.00 | 79 | 1021.5 |
| 20260506224827 | 57 | 237 | 1.0 | 5.0 | 0.00 | 0.00 | 0.00 | 79 | 1021.7 |
| 20260506224324 | 57 | 209 | 2.0 | 2.0 | 0.00 | 0.00 | 0.00 | 79 | 1021.6 |
| 20260506223820 | 57 | 215 | 4.0 | 6.0 | 0.00 | 0.00 | 0.00 | 78 | 1021.6 |
| 20260506223315 | 57 | 212 | 1.0 | 2.0 | 0.00 | 0.00 | 0.00 | 81 | 1021.7 |
| 20260506222812 | 56 | 218 | 3.0 | 6.0 | 0.00 | 0.00 | 0.00 | 80 | 1021.7 |
| 20260506222308 | 56 | 237 | 4.0 | 5.0 | 0.00 | 0.00 | 0.00 | 80 | 1021.9 |
| 20260506221801 | 56 | 219 | 3.0 | 6.0 | 0.00 | 0.00 | 0.00 | 81 | 1022.0 |
| 20260506221258 | 56 | 231 | 3.0 | 5.0 | 0.00 | 0.00 | 0.00 | 80 | 1021.8 |
| 20260506220755 | 57 | 245 | 3.0 | 6.0 | 0.00 | 0.00 | 0.00 | 80 | 1021.7 |
| 20260506220250 | 57 | 220 | 1.0 | 5.0 | 0.00 | 0.00 | 0.00 | 80 | 1021.9 |
| 20260506215747 | 57 | 224 | 2.0 | 5.0 | 0.00 | 0.00 | 0.00 | 80 | 1021.8 |
| 20260506215242 | 57 | 213 | 1.0 | 2.0 | 0.00 | 0.00 | 0.00 | 79 | 1021.8 |
| 20260506214733 | 57 | 221 | 1.0 | 2.0 | 0.00 | 0.00 | 0.00 | 80 | 1021.8 |
| 20260506214231 | 57 | 234 | 4.0 | 6.0 | 0.00 | 0.00 | 0.00 | 80 | 1021.9 |
| 20260506213729 | 57 | 227 | 2.0 | 6.0 | 0.00 | 0.00 | 0.00 | 80 | 1021.8 |
| 20260506213225 | 57 | 211 | 3.0 | 3.0 | 0.00 | 0.00 | 0.00 | 80 | 1022.0 |
| 20260506212717 | 57 | 215 | 1.0 | 3.0 | 0.00 | 0.00 | 0.00 | 81 | 1022.0 |
| 20260506212212 | 57 | 207 | 1.0 | 3.0 | 0.00 | 0.00 | 0.00 | 80 | 1021.8 |
| 20260506211708 | 57 | 221 | 2.0 | 5.0 | 0.00 | 0.00 | 0.00 | 81 | 1021.8 |
| 20260506211204 | 56 | 215 | 1.0 | 3.0 | 0.00 | 0.00 | 0.00 | 81 | 1021.8 |
| 20260506210702 | 57 | 244 | 1.0 | 5.0 | 0.00 | 0.00 | 0.00 | 81 | 1021.9 |
| 20260506210158 | 57 | 237 | 3.0 | 3.0 | 0.00 | 0.00 | 0.00 | 81 | 1021.7 |
| 20260506205655 | 57 | 217 | 0.0 | 0.0 | 0.00 | 0.00 | 0.00 | 81 | 1022.0 |
| 20260506205150 | 57 | 219 | 1.0 | 2.0 | 0.00 | 0.00 | 0.00 | 81 | 1022.0 |
| 20260506204648 | 57 | 225 | 1.0 | 1.0 | 0.00 | 0.00 | 0.00 | 81 | 1021.8 |
| 20260506204145 | 57 | 219 | 1.0 | 2.0 | 0.00 | 0.00 | 0.00 | 81 | 1021.8 |
| 20260506203643 | 57 | 218 | 1.0 | 2.0 | 0.00 | 0.00 | 0.00 | 81 | 1021.9 |
| 20260506203140 | 57 | 218 | 0.0 | 3.0 | 0.00 | 0.00 | 0.00 | 81 | 1021.9 |
| 20260506202638 | 56 | 221 | 1.0 | 2.0 | 0.00 | 0.00 | 0.00 | 82 | 1021.7 |
| 20260506202133 | 56 | 218 | 1.0 | 2.0 | 0.00 | 0.00 | 0.00 | 83 | 1021.8 |
| 20260506201631 | 56 | 214 | 1.0 | 2.0 | 0.00 | 0.00 | 0.00 | 83 | 1021.8 |
| 20260506201127 | 56 | 214 | 1.0 | 2.0 | 0.00 | 0.00 | 0.00 | 82 | 1021.7 |
| 20260506200624 | 56 | 214 | 1.0 | 3.0 | 0.00 | 0.00 | 0.00 | 83 | 1021.8 |
| 20260506200120 | 55 | 213 | 0.0 | 2.0 | 0.00 | 0.00 | 0.00 | 84 | 1021.6 |
| 20260506195617 | 55 | 221 | 1.0 | 2.0 | 0.00 | 0.00 | 0.00 | 84 | 1021.7 |
| 20260506195114 | 55 | 213 | 0.0 | 2.0 | 0.00 | 0.00 | 0.00 | 85 | 1021.7 |
| 20260506194611 | 55 | 212 | 0.0 | 1.0 | 0.00 | 0.00 | 0.00 | 85 | 1021.8 |
| 20260506194107 | 55 | 218 | 2.0 | 3.0 | 0.00 | 0.00 | 0.00 | 84 | 1021.8 |
| 20260506193605 | 55 | 232 | 2.0 | 6.0 | 0.00 | 0.00 | 0.00 | 85 | 1021.6 |
| 20260506193102 | 55 | 213 | 0.0 | 2.0 | 0.00 | 0.00 | 0.00 | 85 | 1021.5 |
| 20260506192559 | 55 | 226 | 1.0 | 5.0 | 0.00 | 0.00 | 0.00 | 85 | 1021.5 |
| 20260506192055 | 56 | 220 | 2.0 | 2.0 | 0.00 | 0.00 | 0.00 | 87 | 1021.5 |